Regional Weather Roundup
Issued by NWS

Home | Current Version | Previous Version | Graphics & Text | Print | Product List | Glossary On
Versions: 1 2 3 4 5 6 7 8 9 10 11 12 13 14 15 16 17 18 19 20 21 22 23 24 25 26 27 28 29 30 31 32 33 34 35 36 37 38 39 40 41 42 43 44 45 46 47 48 49 50
000
ASUS43 KMKX 291700
RWRWI

WISCONSIN REGIONAL WEATHER ROUNDUP
NATIONAL WEATHER SERVICE MILWAUKEE/SULLIVAN WI
1200 PM CDT FRI APR 29 2016

NOTE: "FAIR" INDICATES FEW OR NO CLOUDS BELOW 12,000 FEET WITH NO
SIGNIFICANT WEATHER AND/OR OBSTRUCTIONS TO VISIBILITY.

WIZ001-002-006>008-014>016-023>028-291800-
NORTHWEST WISCONSIN

CITY           SKY/WX    TMP DP  RH WIND       PRES   REMARKS
SUPERIOR ARPT  SUNNY     48  30  50 E6        30.21S
ASHLAND        SUNNY     49  35  58 N14       30.20S
HAYWARD        SUNNY     52  27  38 NE13      30.15F
SIREN          SUNNY     51  28  40 NE12G20   30.15F
CUMBERLAND     SUNNY     48  30  49 NE8       30.13F
RICE LAKE      SUNNY     51  33  49 N8        30.14F
CHETEK         SUNNY     51  35  54 CALM      30.13F
LADYSMITH      MOSUNNY   50  33  52 CALM      30.15F
EAU CLAIRE     NOT AVBL
MENOMONIE      PTSUNNY   49  49 100 W3        30.13F
NEW RICHMOND   SUNNY     49  34  55 N12       30.14F
OSCEOLA        SUNNY     50  34  54 N8        30.17F
$$

WIZ003>005-009-010-017-018-291800-
NORTH CENTRAL WISCONSIN

CITY           SKY/WX    TMP DP  RH WIND       PRES   REMARKS
MANITOWISH WTR MOSUNNY   50  32  51 N6        30.13S
ARBOR VITAE    CLOUDY    52  34  51 E8        30.13S
WOODRUFF       CLOUDY    52  34  51 E8        30.13S
RHINELANDER    PTSUNNY   50  33  52 VRB3      30.12F
EAGLE RIVER    PTSUNNY   49  31  50 E5        30.13F
LAND O LAKES   CLOUDY    48  32  53 CALM      30.15S
PHILLIPS       SUNNY     50  33  52 SE3       30.13F
TOMAHAWK       PTSUNNY   49  34  55 E5        30.13F
MEDFORD        CLOUDY    46  38  74 NE7       30.11F
MERRILL        CLOUDY    48  34  57 E6        30.12F
$$

WIZ029-030-035-036-043>047-291800-
CENTRAL WISCONSIN

CITY           SKY/WX    TMP DP  RH WIND       PRES   REMARKS
WAUSAU         MOSUNNY   53  34  48 N10       30.09F
MOSINEE        MOSUNNY   48  36  61 N10       30.11F
MARSHFIELD     PTSUNNY   50  37  61 NE8G17    30.11R
STEVENS POINT  MOSUNNY   48  33  55 NE14G20   30.10F
WAUPACA        SUNNY     54  34  47 N14       30.10F
WAUTOMA        MOSUNNY   52  35  52 NE8G16    30.13R
WISC RAPIDS    CLOUDY    49  35  58 E8        30.13R
CAMP DOUGLAS   CLOUDY    46  45  93 N7        30.12R
$$

WIZ011>013-019>022-031-037>040-048>050-291800-
NORTHEAST WISCONSIN

CITY           SKY/WX    TMP DP  RH WIND       PRES   REMARKS
ANTIGO         CLOUDY    49  35  58 N3        30.11F
SHAWANO        CLOUDY    52  34  50 E6        30.13F
OCONTO         CLOUDY    49  32  53 E6        30.14S
STURGEON BAY   CLOUDY    48  30  49 N9        30.15F
GREEN BAY      CLOUDY    51  33  50 E13       30.13F
MANITOWOC      NOT AVBL
APPLETON       MOSUNNY   50  30  46 NE12G17   30.09F
CLINTONVILLE   CLOUDY    52  32  46 E6        30.12F
OSHKOSH        CLOUDY    49  36  61 NE14      30.11R
$$

WIZ032>034-041-042-053>061-291800-
SOUTHWEST WISCONSIN

CITY           SKY/WX    TMP DP  RH WIND       PRES   REMARKS
LA CROSSE      CLOUDY    49  36  61 NE7       30.14R
SPARTA         CLOUDY    48  38  67 NE7       30.14R
VIROQUA        CLOUDY    47  39  72 NE10      30.12R
BOSCOBEL       CLOUDY    51  36  56 VRB6      30.14R
PRAIRIE DU CHI CLOUDY    47  35  63 CALM      30.14R
PLATTEVILLE    CLOUDY    47  39  74 NE7       30.12R
$$

WIZ056-057-062-063-064-067-068-291800-
SOUTH CENTRAL WISCONSIN

CITY           SKY/WX    TMP DP  RH WIND       PRES   REMARKS
REEDSBURG      CLOUDY    46  37  70 E7        30.11S
BARABOO/DELLS  CLOUDY    47  37  68 NE7       30.11S
LONE ROCK      NOT AVBL
MINERAL POINT  CLOUDY    46  37  71 E9        30.12R
MADISON        CLOUDY    46  37  71 NE13      30.11F
MIDDLETON      CLOUDY    47  39  73 E12       30.11F
WATERTOWN      CLOUDY    45  39  79 E9        30.11F
MONROE         CLOUDY    45  37  76 N15       30.09F
JANESVILLE     NOT AVBL
$$

WIZ051-052-058>065-066-070>072-291800-
SOUTHEAST WISCONSIN

CITY           SKY/WX    TMP DP  RH WIND       PRES   REMARKS
MILWAUKEE      CLOUDY    44  37  76 NE9       30.12F
WAUKESHA       CLOUDY    39  36  87 NE7       30.13F WCI  34
MILWAUKEE/TIMM NOT AVBL
RACINE         CLOUDY    45  37  73 N9        30.14S
BURLINGTON     CLOUDY    42  37  83 E8        30.12S
KENOSHA        CLOUDY    44  38  79 NE8       30.13S
FOND DU LAC    CLOUDY    49  36  61 NE9       30.11F
SHEBOYGAN      PTSUNNY   48  34  58 E12       30.13R
WEST BEND      CLOUDY    46  34  61 E14       30.12S
JUNEAU         CLOUDY    45  35  68 N7        30.13R
$$

LSZ147-162-291800-
LAKE SUPERIOR

STATION/POSITION TIME  TEMP    WIND        PRES    WAVE
                       AIR SEA DIR/SP/G            HT/PER
                 (UTC) (F)     (DEG/KT/KT) (MB)    (FT/S)
W MID LAKE BUOY  1550   38 36   40/  6/  8 1023.8R   1
DEVILS ISLAND    1600   38      80/  5/  5 1024.0F
SAXON HARBOR     1600   39     340/  5/  6 1022.4F
$$

LMZ867-665-643>646-291800-
LAKE MICHIGAN

STATION/POSITION TIME  TEMP    WIND        PRES    WAVE
                       AIR SEA DIR/SP/G            HT/PER
                 (UTC) (F)     (DEG/KT/KT) (MB)    (FT/S)
CHAMBERS ISLAND  1600   40      20/  9/ 12 1021.3S
N MID LAKE BUOY  1550   39 39  360/ 10/ 14 1020.9F   1/ 3
NORTHPORT PIER   1600   42     310/  6/  7 1021.0S
ALGOMA LAKESHORE 1615           60/ 13/ 17   N/A
KEWAUNEE LAKESHO 1600   44      30/  9/ 12 1019.9R
SHEBOYGAN LAKESH 1600   40      40/  9/ 10 1021.0R
PORT WASHINGTON  1600   44      60/ 11/ 15 1021.0R
S MID LAKE BUOY  1550   40 40   40/ 10/ 10 1020.0R   1/ 3
KENOSHA   LAKESH 1600   40      30/ 11/ 14 1020.3R
$$

TC  - TEMPERATURE IN CELSIUS
VSB - VISIBILITY IN STATUTE MILES
WCI - WIND CHILL INDEX
HX  - HEAT INDEX





USA.gov is the U.S. government's official web portal to all federal, state and local government web resources and services.